FW5146 Weather Reports


Display with metric or nautical units.
time (UTC)temp
F
wind
direction
speed
MPH
gust
MPH
rain 1hr
in
rain 24hr
in
rain mn
in
humidity
%
barometer
mb
20260505022223 61 225 0.0 0.0 0.00 0.00 0.00 41 1009.8
20260505020323 62 270 0.0 1.0 0.00 0.00 0.00 38 1009.9
20260505015325 63 223 1.0 3.0 0.00 0.00 0.00 37 1010.0
20260505013424 65 184 3.0 6.0 0.00 0.00 0.00 37 1009.8
20260505012522 65 209 4.0 10.0 0.00 0.00 0.00 37 1010.0
20260505011522 65 208 3.0 8.0 0.00 0.00 0.00 35 1010.0
20260505010523 66 207 3.0 8.0 0.00 0.00 0.00 34 1010.1
20260505005524 67 205 4.0 10.0 0.00 0.00 0.00 34 1010.0
20260505004623 67 197 4.0 7.0 0.00 0.00 0.00 33 1010.1
20260505003722 68 195 3.0 6.0 0.00 0.00 0.00 33 1009.9
20260505002722 68 174 2.0 4.0 0.00 0.00 0.00 33 1010.2
20260505001724 68 187 3.0 10.0 0.00 0.00 0.00 32 1010.2
20260505000822 68 163 1.0 3.0 0.00 0.00 0.00 32 1010.4
20260504235825 69 158 7.0 11.0 0.00 0.00 0.00 31 1010.4
20260504234922 70 157 2.0 5.0 0.00 0.00 0.00 30 1010.2
20260504233941 71 155 6.0 9.0 0.00 0.00 0.00 28 1010.2
20260504232925 71 165 4.0 8.0 0.00 0.00 0.00 27 1010.1
20260504231924 70 176 3.0 7.0 0.00 0.00 0.00 29 1010.1
20260504230924 69 163 3.0 6.0 0.00 0.00 0.00 28 1010.0
20260504225923 70 193 6.0 13.0 0.00 0.00 0.00 27 1010.0
20260504224923 71 187 2.0 5.0 0.00 0.00 0.00 27 1010.0
20260504223924 72 159 5.0 9.0 0.00 0.00 0.00 27 1010.0
20260504222922 72 218 3.0 5.0 0.00 0.00 0.00 25 1010.0
20260504221924 75 212 4.0 6.0 0.00 0.00 0.00 24 1010.0
20260504221022 78 221 2.0 4.0 0.00 0.00 0.00 21 1010.2
20260504220023 78 242 1.0 4.0 0.00 0.00 0.00 20 1009.8
20260504215023 77 211 2.0 6.0 0.00 0.00 0.00 20 1010.0
20260504214024 77 222 2.0 4.0 0.00 0.00 0.00 21 1010.2
20260504213123 76 277 2.0 5.0 0.00 0.00 0.00 22 1010.4
20260504212123 77 232 1.0 4.0 0.00 0.00 0.00 23 1010.6
20260504211222 77 251 1.0 5.0 0.00 0.00 0.00 23 1010.4
20260504210224 76 216 2.0 5.0 0.00 0.00 0.00 23 1010.8
20260504205225 76 270 3.0 7.0 0.00 0.00 0.00 24 1010.8
20260504203422 76 219 1.0 2.0 0.00 0.00 0.00 25 1010.8
20260504201423 74 200 3.0 7.0 0.00 0.00 0.00 26 1010.9
20260504194424 73 262 2.0 9.0 0.00 0.00 0.00 26 1011.2
20260504190424 72 250 2.0 6.0 0.00 0.00 0.00 27 1011.7
20260504185423 72 272 4.0 7.0 0.00 0.00 0.00 27 1011.7
20260504184423 72 289 3.0 7.0 0.00 0.00 0.00 27 1011.7
20260504183421 72 250 2.0 6.0 0.00 0.00 0.00 27 1012.0
20260504182424 71 210 2.0 5.0 0.00 0.00 0.00 28 1012.1
20260504181425 72 303 2.0 5.0 0.00 0.00 0.00 28 1012.3
20260504180424 71 297 1.0 3.0 0.00 0.00 0.00 28 1012.4
20260504175423 70 278 1.0 3.0 0.00 0.00 0.00 30 1012.6
20260504174424 69 109 1.0 3.0 0.00 0.00 0.00 31 1012.7
20260504174325 69 134 1.0 4.0 0.00 0.00 0.00 31 1012.7
20260504173324 68 173 0.0 2.0 0.00 0.00 0.00 32 1012.9
20260504171323 65 87 0.0 2.0 0.00 0.00 0.00 31 1013.2
20260504170323 64 360 2.0 3.0 0.00 0.00 0.00 32 1013.5
20260504150722 51 157 0.0 2.0 0.00 0.00 0.00 46 1014.7
20260504140723 40 45 0.0 0.0 0.00 0.00 0.00 71 1014.8
20260504081823 38 22 0.0 0.0 0.00 0.00 0.00 69 1013.8
20260504080823 39 22 0.0 0.0 0.00 0.00 0.00 66 1013.9
20260504045729 49 22 0.0 0.0 0.00 0.00 0.00 44 1014.4
20260504044728 50 22 0.0 0.0 0.00 0.00 0.00 42 1014.4
20260504043828 51 22 0.0 0.0 0.00 0.00 0.00 41 1014.3
20260504042830 52 22 0.0 1.0 0.00 0.00 0.00 39 1014.3
20260504040830 52 22 0.0 2.0 0.00 0.00 0.00 40 1014.2
20260504035730 53 22 0.0 0.0 0.00 0.00 0.00 38 1014.0
20260504033829 55 22 0.0 0.0 0.00 0.00 0.00 37 1013.9
20260504032829 55 22 2.0 3.0 0.00 0.00 0.00 37 1014.0
20260504031829 56 22 0.0 0.0 0.00 0.00 0.00 34 1014.0
20260504030927 58 22 0.0 0.0 0.00 0.00 0.00 33 1014.0
20260504025928 59 22 0.0 1.0 0.00 0.00 0.00 33 1014.0
20260504025828 59 22 0.0 1.0 0.00 0.00 0.00 33 1013.9
20260504025729 59 22 1.0 2.0 0.00 0.00 0.00 32 1014.0
20260504024732 60 225 0.0 0.0 0.00 0.00 0.00 32 1014.0
20260504022829 62 225 0.0 0.0 0.00 0.00 0.00 29 1013.8